| time (UTC) | temp F | wind direction | speed MPH | gust MPH | rain 1hr in | rain 24hr in | rain mn in | humidity % | barometer mb |
| 20260506211502 | 67 | 221 | 7.0 | 14.0 | 0.00 | 0.11 | 0.11 | 84 | 1008.7 |
| 20260506211003 | 67 | 192 | 8.0 | 13.0 | 0.00 | 0.11 | 0.11 | 84 | 1008.7 |
| 20260506210502 | 67 | 222 | 9.0 | 16.0 | 0.00 | 0.11 | 0.11 | 84 | 1008.7 |
| 20260506210004 | 68 | 217 | 9.0 | 16.0 | 0.00 | 0.11 | 0.11 | 84 | 1008.6 |
| 20260506205502 | 68 | 203 | 8.0 | 16.0 | 0.00 | 0.11 | 0.11 | 85 | 1008.6 |
| 20260506205004 | 68 | 222 | 8.0 | 13.0 | 0.00 | 0.11 | 0.11 | 85 | 1008.6 |
| 20260506204502 | 68 | 169 | 8.0 | 13.0 | 0.00 | 0.11 | 0.11 | 84 | 1008.6 |
| 20260506204004 | 67 | 235 | 9.0 | 14.0 | 0.00 | 0.11 | 0.11 | 84 | 1008.4 |
| 20260506203503 | 67 | 244 | 9.0 | 16.0 | 0.00 | 0.11 | 0.11 | 85 | 1008.6 |
| 20260506203005 | 67 | 190 | 9.0 | 16.0 | 0.00 | 0.11 | 0.11 | 85 | 1008.5 |
| 20260506202503 | 67 | 239 | 9.0 | 16.0 | 0.00 | 0.11 | 0.11 | 86 | 1008.4 |
| 20260506202003 | 67 | 221 | 10.0 | 20.0 | 0.00 | 0.11 | 0.11 | 85 | 1008.4 |
| 20260506201004 | 67 | 206 | 9.0 | 16.0 | 0.00 | 0.11 | 0.11 | 85 | 1008.5 |
| 20260506200501 | 67 | 229 | 9.0 | 15.0 | 0.00 | 0.11 | 0.11 | 86 | 1008.3 |
| 20260506195503 | 66 | 200 | 10.0 | 20.0 | 0.00 | 0.11 | 0.11 | 86 | 1008.4 |
| 20260506195005 | 66 | 213 | 11.0 | 21.0 | 0.00 | 0.11 | 0.11 | 87 | 1008.3 |
| 20260506194502 | 66 | 214 | 10.0 | 21.0 | 0.00 | 0.11 | 0.11 | 86 | 1008.6 |
| 20260506194006 | 67 | 209 | 9.0 | 17.0 | 0.00 | 0.11 | 0.11 | 88 | 1008.7 |
| 20260506193502 | 65 | 175 | 9.0 | 17.0 | 0.00 | 0.11 | 0.11 | 88 | 1008.5 |
| 20260506193004 | 65 | 215 | 10.0 | 18.0 | 0.11 | 0.11 | 0.11 | 88 | 1008.8 |
| 20260506192503 | 65 | 205 | 9.0 | 18.0 | 0.11 | 0.11 | 0.11 | 88 | 1008.7 |
| 20260506192004 | 65 | 247 | 9.0 | 17.0 | 0.11 | 0.11 | 0.11 | 88 | 1008.9 |
| 20260506191003 | 65 | 207 | 9.0 | 14.0 | 0.11 | 0.11 | 0.11 | 88 | 1008.9 |
| 20260506190503 | 64 | 217 | 10.0 | 19.0 | 0.11 | 0.11 | 0.11 | 89 | 1009.1 |
| 20260506185502 | 64 | 198 | 9.0 | 18.0 | 0.11 | 0.11 | 0.11 | 89 | 1009.1 |
| 20260506185006 | 64 | 192 | 9.0 | 16.0 | 0.11 | 0.11 | 0.11 | 89 | 1009.1 |
| 20260506184503 | 64 | 221 | 9.0 | 16.0 | 0.11 | 0.11 | 0.11 | 89 | 1009.1 |
| 20260506184004 | 64 | 218 | 9.0 | 15.0 | 0.11 | 0.11 | 0.11 | 89 | 1009.1 |
| 20260506183005 | 63 | 213 | 10.0 | 20.0 | 0.00 | 0.00 | 0.00 | 89 | 1009.0 |
| 20260506182503 | 63 | 213 | 10.0 | 20.0 | 0.00 | 0.00 | 0.00 | 89 | 1009.3 |
| 20260506181503 | 63 | 176 | 9.0 | 18.0 | 0.00 | 0.00 | 0.00 | 89 | 1009.3 |
| 20260506181005 | 63 | 202 | 9.0 | 19.0 | 0.00 | 0.00 | 0.00 | 90 | 1009.3 |
| 20260506180502 | 63 | 213 | 7.0 | 19.0 | 0.00 | 0.00 | 0.00 | 90 | 1009.4 |
| 20260506180005 | 63 | 168 | 7.0 | 18.0 | 0.00 | 0.00 | 0.00 | 90 | 1009.5 |
| 20260506175503 | 62 | 236 | 7.0 | 15.0 | 0.00 | 0.00 | 0.00 | 90 | 1009.6 |
| 20260506175004 | 62 | 228 | 7.0 | 15.0 | 0.00 | 0.00 | 0.00 | 90 | 1009.6 |
| 20260506174503 | 62 | 192 | 6.0 | 13.0 | 0.00 | 0.00 | 0.00 | 90 | 1009.5 |
| 20260506174004 | 62 | 205 | 7.0 | 12.0 | 0.00 | 0.00 | 0.00 | 90 | 1009.4 |
| 20260506173502 | 62 | 218 | 6.0 | 12.0 | 0.00 | 0.00 | 0.00 | 90 | 1009.6 |
| 20260506173003 | 62 | 186 | 6.0 | 11.0 | 0.00 | 0.00 | 0.00 | 91 | 1009.3 |
| 20260506172504 | 62 | 195 | 5.0 | 10.0 | 0.00 | 0.00 | 0.00 | 91 | 1009.3 |
| 20260506172005 | 62 | 184 | 5.0 | 14.0 | 0.00 | 0.00 | 0.00 | 91 | 1009.4 |
| 20260506171502 | 62 | 174 | 6.0 | 15.0 | 0.00 | 0.00 | 0.00 | 91 | 1009.5 |
| 20260506171006 | 62 | 163 | 7.0 | 18.0 | 0.00 | 0.00 | 0.00 | 91 | 1009.5 |
| 20260506170501 | 62 | 180 | 7.0 | 18.0 | 0.00 | 0.00 | 0.00 | 91 | 1009.7 |
| 20260506165501 | 62 | 172 | 6.0 | 10.0 | 0.00 | 0.00 | 0.00 | 91 | 1009.6 |
| 20260506165005 | 62 | 202 | 7.0 | 12.0 | 0.00 | 0.00 | 0.00 | 91 | 1009.5 |
| 20260506164503 | 62 | 190 | 6.0 | 14.0 | 0.00 | 0.00 | 0.00 | 91 | 1009.5 |
| 20260506164004 | 62 | 134 | 5.0 | 14.0 | 0.00 | 0.00 | 0.00 | 91 | 1009.6 |
| 20260506163504 | 62 | 188 | 6.0 | 14.0 | 0.00 | 0.00 | 0.00 | 91 | 1009.6 |
| 20260506163004 | 62 | 190 | 6.0 | 16.0 | 0.00 | 0.00 | 0.00 | 91 | 1009.7 |
| 20260506162504 | 62 | 167 | 6.0 | 16.0 | 0.00 | 0.00 | 0.00 | 91 | 1009.7 |
| 20260506162004 | 62 | 145 | 7.0 | 13.0 | 0.00 | 0.00 | 0.00 | 91 | 1009.9 |
| 20260506161504 | 62 | 211 | 7.0 | 13.0 | 0.00 | 0.00 | 0.00 | 91 | 1009.9 |
| 20260506161006 | 62 | 222 | 6.0 | 13.0 | 0.00 | 0.00 | 0.00 | 91 | 1009.8 |
| 20260506160502 | 61 | 159 | 6.0 | 11.0 | 0.00 | 0.00 | 0.00 | 91 | 1009.9 |
| 20260506154502 | 61 | 159 | 6.0 | 12.0 | 0.00 | 0.00 | 0.00 | 90 | 1010.3 |
| 20260506154004 | 61 | 160 | 7.0 | 13.0 | 0.00 | 0.00 | 0.00 | 90 | 1010.5 |
| 20260506153502 | 61 | 180 | 7.0 | 19.0 | 0.00 | 0.00 | 0.00 | 90 | 1010.6 |
| 20260506153004 | 61 | 198 | 7.0 | 19.0 | 0.00 | 0.00 | 0.00 | 89 | 1010.7 |
| 20260506152502 | 62 | 188 | 7.0 | 11.0 | 0.00 | 0.00 | 0.00 | 89 | 1010.8 |
| 20260506152003 | 62 | 213 | 6.0 | 11.0 | 0.00 | 0.00 | 0.00 | 89 | 1010.7 |
| 20260506151502 | 62 | 199 | 5.0 | 9.0 | 0.00 | 0.00 | 0.00 | 89 | 1010.9 |
| 20260506151005 | 62 | 184 | 5.0 | 10.0 | 0.00 | 0.00 | 0.00 | 89 | 1010.5 |
| 20260506150502 | 62 | 189 | 6.0 | 10.0 | 0.00 | 0.00 | 0.00 | 89 | 1010.4 |
| 20260506150003 | 62 | 200 | 5.0 | 11.0 | 0.00 | 0.00 | 0.00 | 88 | 1010.5 |
| 20260506145501 | 62 | 207 | 5.0 | 11.0 | 0.00 | 0.00 | 0.00 | 88 | 1010.4 |
| 20260506145004 | 62 | 204 | 6.0 | 13.0 | 0.00 | 0.00 | 0.00 | 87 | 1010.4 |
| 20260506144004 | 63 | 235 | 7.0 | 13.0 | 0.00 | 0.00 | 0.00 | 86 | 1010.6 |
| 20260506143005 | 63 | 200 | 9.0 | 17.0 | 0.00 | 0.00 | 0.00 | 84 | 1010.9 |
| 20260506142502 | 64 | 138 | 9.0 | 16.0 | 0.00 | 0.00 | 0.00 | 82 | 1010.8 |
| 20260506142004 | 64 | 233 | 8.0 | 16.0 | 0.00 | 0.00 | 0.00 | 82 | 1010.9 |
| 20260506141502 | 64 | 189 | 9.0 | 15.0 | 0.00 | 0.00 | 0.00 | 82 | 1011.0 |
| 20260506141003 | 64 | 250 | 9.0 | 20.0 | 0.00 | 0.00 | 0.00 | 81 | 1010.8 |
| 20260506140504 | 64 | 196 | 8.0 | 20.0 | 0.00 | 0.00 | 0.00 | 81 | 1010.7 |
| 20260506140006 | 64 | 204 | 9.0 | 18.0 | 0.00 | 0.00 | 0.00 | 81 | 1010.7 |
| 20260506135004 | 65 | 193 | 9.0 | 19.0 | 0.00 | 0.00 | 0.00 | 79 | 1010.9 |
| 20260506134503 | 65 | 181 | 9.0 | 19.0 | 0.00 | 0.00 | 0.00 | 78 | 1010.7 |
| 20260506134004 | 66 | 188 | 10.0 | 19.0 | 0.00 | 0.00 | 0.00 | 77 | 1010.6 |
| 20260506133503 | 66 | 207 | 10.0 | 19.0 | 0.00 | 0.00 | 0.00 | 77 | 1010.6 |
| 20260506133004 | 66 | 207 | 9.0 | 18.0 | 0.00 | 0.00 | 0.00 | 76 | 1010.5 |
| 20260506132502 | 66 | 211 | 9.0 | 17.0 | 0.00 | 0.00 | 0.00 | 78 | 1010.5 |
| 20260506132003 | 66 | 185 | 10.0 | 20.0 | 0.00 | 0.00 | 0.00 | 78 | 1010.5 |
| 20260506131503 | 65 | 217 | 10.0 | 20.0 | 0.00 | 0.00 | 0.00 | 78 | 1010.5 |
| 20260506131004 | 65 | 224 | 10.0 | 19.0 | 0.00 | 0.00 | 0.00 | 79 | 1010.6 |
| 20260506130502 | 65 | 215 | 9.0 | 19.0 | 0.00 | 0.00 | 0.00 | 79 | 1010.6 |
| 20260506130005 | 65 | 191 | 9.0 | 18.0 | 0.00 | 0.00 | 0.00 | 78 | 1010.6 |
| 20260506125501 | 65 | 207 | 10.0 | 19.0 | 0.00 | 0.00 | 0.00 | 78 | 1010.7 |
| 20260506125004 | 65 | 212 | 11.0 | 19.0 | 0.00 | 0.00 | 0.00 | 78 | 1010.9 |
| 20260506124503 | 65 | 224 | 12.0 | 24.0 | 0.00 | 0.00 | 0.00 | 78 | 1010.8 |
| 20260506124004 | 65 | 186 | 12.0 | 24.0 | 0.00 | 0.00 | 0.00 | 77 | 1010.9 |
| 20260506123501 | 65 | 207 | 11.0 | 23.0 | 0.00 | 0.00 | 0.00 | 77 | 1011.0 |
| 20260506123005 | 65 | 202 | 13.0 | 29.0 | 0.00 | 0.00 | 0.00 | 77 | 1010.9 |
| 20260506122501 | 65 | 211 | 13.0 | 29.0 | 0.00 | 0.00 | 0.00 | 77 | 1010.9 |
| 20260506122004 | 66 | 184 | 11.0 | 23.0 | 0.00 | 0.00 | 0.00 | 78 | 1010.7 |
| 20260506121502 | 66 | 202 | 12.0 | 22.0 | 0.00 | 0.00 | 0.00 | 78 | 1010.8 |
| 20260506121003 | 66 | 182 | 12.0 | 24.0 | 0.00 | 0.00 | 0.00 | 77 | 1010.6 |
| 20260506120502 | 66 | 169 | 11.0 | 24.0 | 0.00 | 0.00 | 0.00 | 77 | 1010.6 |
| 20260506120004 | 66 | 214 | 11.0 | 20.0 | 0.00 | 0.00 | 0.00 | 77 | 1010.6 |
| 20260506115503 | 66 | 174 | 10.0 | 20.0 | 0.00 | 0.00 | 0.00 | 78 | 1010.4 |
| 20260506115004 | 66 | 163 | 10.0 | 20.0 | 0.00 | 0.00 | 0.00 | 78 | 1010.4 |
| 20260506114502 | 66 | 227 | 10.0 | 21.0 | 0.00 | 0.00 | 0.00 | 78 | 1010.3 |
| 20260506114005 | 65 | 169 | 9.0 | 21.0 | 0.00 | 0.00 | 0.00 | 79 | 1010.4 |
| 20260506113502 | 65 | 179 | 9.0 | 17.0 | 0.00 | 0.00 | 0.00 | 79 | 1010.3 |
| 20260506113004 | 65 | 201 | 9.0 | 19.0 | 0.00 | 0.00 | 0.00 | 80 | 1010.3 |
| 20260506112003 | 65 | 212 | 9.0 | 17.0 | 0.00 | 0.00 | 0.00 | 80 | 1010.2 |
| 20260506111504 | 65 | 200 | 8.0 | 17.0 | 0.00 | 0.00 | 0.00 | 80 | 1010.3 |
| 20260506110502 | 65 | 205 | 8.0 | 13.0 | 0.00 | 0.00 | 0.00 | 80 | 1010.2 |
| 20260506110001 | 65 | 211 | 9.0 | 17.0 | 0.00 | 0.00 | 0.00 | 80 | 1010.3 |
| 20260506105002 | 65 | 143 | 8.0 | 15.0 | 0.00 | 0.00 | 0.00 | 80 | 1010.1 |
| 20260506104502 | 65 | 190 | 8.0 | 15.0 | 0.00 | 0.00 | 0.00 | 80 | 1010.0 |
| 20260506104004 | 65 | 240 | 7.0 | 15.0 | 0.00 | 0.00 | 0.00 | 80 | 1010.1 |
| 20260506103502 | 65 | 213 | 7.0 | 19.0 | 0.00 | 0.00 | 0.00 | 80 | 1010.1 |
| 20260506103004 | 65 | 200 | 8.0 | 19.0 | 0.00 | 0.00 | 0.00 | 80 | 1010.1 |
| 20260506102501 | 65 | 210 | 7.0 | 14.0 | 0.00 | 0.00 | 0.00 | 80 | 1010.2 |
| 20260506102005 | 64 | 194 | 7.0 | 15.0 | 0.00 | 0.00 | 0.00 | 80 | 1010.2 |
| 20260506101504 | 64 | 216 | 7.0 | 15.0 | 0.00 | 0.00 | 0.00 | 80 | 1010.2 |
| 20260506101002 | 64 | 215 | 7.0 | 15.0 | 0.00 | 0.00 | 0.00 | 80 | 1010.3 |
| 20260506100502 | 64 | 227 | 7.0 | 15.0 | 0.00 | 0.00 | 0.00 | 80 | 1010.0 |
| 20260506100001 | 64 | 198 | 7.0 | 15.0 | 0.00 | 0.00 | 0.00 | 80 | 1010.2 |
| 20260506095501 | 64 | 184 | 7.0 | 15.0 | 0.00 | 0.00 | 0.00 | 80 | 1010.1 |
| 20260506095002 | 64 | 191 | 8.0 | 16.0 | 0.00 | 0.00 | 0.00 | 80 | 1010.1 |
| 20260506094503 | 64 | 193 | 8.0 | 16.0 | 0.00 | 0.00 | 0.00 | 80 | 1010.0 |
| 20260506094002 | 64 | 175 | 7.0 | 16.0 | 0.00 | 0.00 | 0.00 | 80 | 1010.1 |
| 20260506093502 | 64 | 183 | 7.0 | 16.0 | 0.00 | 0.00 | 0.00 | 80 | 1010.1 |
| 20260506092502 | 65 | 209 | 7.0 | 15.0 | 0.00 | 0.00 | 0.00 | 80 | 1010.2 |
| 20260506092004 | 65 | 192 | 7.0 | 15.0 | 0.00 | 0.00 | 0.00 | 80 | 1010.2 |
| 20260506091504 | 65 | 209 | 7.0 | 17.0 | 0.00 | 0.00 | 0.00 | 79 | 1010.3 |
| 20260506090002 | 65 | 211 | 8.0 | 17.0 | 0.00 | 0.00 | 0.00 | 78 | 1010.3 |
| 20260506085459 | 65 | 200 | 8.0 | 17.0 | 0.00 | 0.00 | 0.00 | 78 | 1010.2 |
| 20260506084958 | 65 | 213 | 7.0 | 14.0 | 0.00 | 0.00 | 0.00 | 77 | 1010.3 |
| 20260506084500 | 66 | 185 | 8.0 | 18.0 | 0.00 | 0.00 | 0.00 | 77 | 1010.3 |
| 20260506083955 | 66 | 182 | 9.0 | 20.0 | 0.00 | 0.00 | 0.00 | 77 | 1010.2 |
| 20260506083457 | 66 | 234 | 9.0 | 20.0 | 0.00 | 0.00 | 0.00 | 76 | 1010.3 |
| 20260506082956 | 66 | 192 | 8.0 | 17.0 | 0.00 | 0.00 | 0.00 | 76 | 1010.2 |
| 20260506082453 | 67 | 202 | 8.0 | 17.0 | 0.00 | 0.00 | 0.00 | 76 | 1010.2 |
| 20260506081952 | 67 | 204 | 9.0 | 17.0 | 0.00 | 0.00 | 0.00 | 75 | 1010.2 |
| 20260506080948 | 67 | 196 | 10.0 | 20.0 | 0.00 | 0.00 | 0.00 | 75 | 1010.3 |
| 20260506080446 | 67 | 178 | 10.0 | 20.0 | 0.00 | 0.00 | 0.00 | 75 | 1010.5 |
| 20260506073439 | 67 | 207 | 10.0 | 20.0 | 0.00 | 0.00 | 0.00 | 75 | 1010.5 |
| 20260506071938 | 67 | 207 | 8.0 | 19.0 | 0.00 | 0.00 | 0.00 | 75 | 1010.6 |
| 20260506062429 | 67 | 171 | 6.0 | 15.0 | 0.00 | 0.00 | 0.00 | 74 | 1010.8 |
| 20260506061934 | 67 | 162 | 5.0 | 15.0 | 0.00 | 0.00 | 0.00 | 74 | 1010.9 |
| 20260506061431 | 67 | 201 | 6.0 | 11.0 | 0.00 | 0.00 | 0.00 | 74 | 1010.9 |
| 20260506060932 | 67 | 154 | 6.0 | 11.0 | 0.00 | 0.00 | 0.00 | 74 | 1010.9 |
| 20260506060430 | 67 | 180 | 6.0 | 10.0 | 0.00 | 0.00 | 0.00 | 74 | 1011.0 |
| 20260506050430 | 68 | 155 | 6.0 | 11.0 | 0.00 | 0.00 | 0.00 | 69 | 1011.3 |
| 20260506044933 | 68 | 184 | 5.0 | 11.0 | 0.00 | 0.00 | 0.00 | 67 | 1011.3 |
| 20260506044430 | 69 | 188 | 5.0 | 11.0 | 0.00 | 0.00 | 0.00 | 67 | 1011.3 |
| 20260506043933 | 69 | 196 | 5.0 | 10.0 | 0.00 | 0.00 | 0.00 | 66 | 1011.3 |
| 20260506043430 | 69 | 194 | 5.0 | 10.0 | 0.00 | 0.00 | 0.00 | 66 | 1011.4 |
| 20260506042430 | 69 | 182 | 5.0 | 9.0 | 0.00 | 0.00 | 0.00 | 66 | 1011.4 |
| 20260506041432 | 69 | 211 | 6.0 | 12.0 | 0.00 | 0.00 | 0.00 | 65 | 1011.3 |
| 20260506040932 | 69 | 191 | 6.0 | 12.0 | 0.00 | 0.00 | 0.00 | 65 | 1011.4 |
| 20260506040430 | 69 | 205 | 6.0 | 11.0 | 0.00 | 0.00 | 0.00 | 65 | 1011.2 |
| 20260506035931 | 69 | 207 | 6.0 | 11.0 | 0.00 | 0.00 | 0.00 | 64 | 1011.3 |
| 20260506035431 | 69 | 223 | 6.0 | 11.0 | 0.00 | 0.00 | 0.00 | 64 | 1011.4 |
| 20260506034932 | 69 | 225 | 5.0 | 11.0 | 0.00 | 0.00 | 0.00 | 64 | 1011.3 |
| 20260506034432 | 69 | 195 | 6.0 | 10.0 | 0.00 | 0.00 | 0.00 | 64 | 1011.3 |
| 20260506033933 | 69 | 182 | 5.0 | 10.0 | 0.00 | 0.00 | 0.00 | 64 | 1011.3 |
| 20260506032933 | 69 | 188 | 5.0 | 10.0 | 0.00 | 0.00 | 0.00 | 64 | 1011.2 |
| 20260506032432 | 69 | 207 | 5.0 | 8.0 | 0.00 | 0.00 | 0.00 | 64 | 1011.3 |
| 20260506031932 | 69 | 211 | 4.0 | 9.0 | 0.00 | 0.00 | 0.00 | 64 | 1011.3 |
| 20260506030433 | 69 | 213 | 5.0 | 10.0 | 0.00 | 0.00 | 0.00 | 64 | 1011.3 |
| 20260506025932 | 69 | 188 | 5.0 | 9.0 | 0.00 | 0.00 | 0.00 | 64 | 1011.3 |
| 20260506024931 | 69 | 185 | 5.0 | 12.0 | 0.00 | 0.00 | 0.00 | 64 | 1011.5 |
| 20260506024435 | 69 | 205 | 4.0 | 12.0 | 0.00 | 0.00 | 0.00 | 65 | 1011.5 |
| 20260506023432 | 69 | 182 | 5.0 | 9.0 | 0.00 | 0.00 | 0.00 | 64 | 1011.6 |
| 20260506022932 | 70 | 221 | 5.0 | 9.0 | 0.00 | 0.00 | 0.00 | 64 | 1011.7 |
| 20260506022429 | 69 | 182 | 4.0 | 8.0 | 0.00 | 0.00 | 0.00 | 64 | 1011.5 |
| 20260506021430 | 70 | 185 | 5.0 | 11.0 | 0.00 | 0.00 | 0.00 | 63 | 1011.6 |
| 20260506020932 | 70 | 186 | 6.0 | 11.0 | 0.00 | 0.00 | 0.00 | 62 | 1011.7 |
| 20260506014933 | 71 | 227 | 6.0 | 15.0 | 0.00 | 0.00 | 0.00 | 61 | 1011.3 |
| 20260506014430 | 71 | 161 | 5.0 | 15.0 | 0.00 | 0.00 | 0.00 | 60 | 1011.2 |
| 20260506013932 | 71 | 228 | 5.0 | 10.0 | 0.00 | 0.00 | 0.00 | 60 | 1011.2 |
| 20260506012931 | 71 | 205 | 5.0 | 11.0 | 0.00 | 0.00 | 0.00 | 60 | 1011.2 |
| 20260506011931 | 71 | 193 | 4.0 | 11.0 | 0.00 | 0.00 | 0.00 | 59 | 1011.0 |
| 20260506011432 | 71 | 186 | 5.0 | 10.0 | 0.00 | 0.00 | 0.00 | 59 | 1011.0 |
| 20260506010932 | 71 | 177 | 5.0 | 10.0 | 0.00 | 0.00 | 0.00 | 59 | 1010.9 |
| 20260506010430 | 72 | 216 | 5.0 | 12.0 | 0.00 | 0.00 | 0.00 | 58 | 1010.9 |
| 20260506005932 | 72 | 185 | 6.0 | 12.0 | 0.00 | 0.00 | 0.00 | 57 | 1010.9 |
| 20260506005429 | 72 | 218 | 6.0 | 10.0 | 0.00 | 0.00 | 0.00 | 57 | 1010.8 |
| 20260506004930 | 72 | 177 | 6.0 | 10.0 | 0.00 | 0.00 | 0.00 | 57 | 1010.8 |
| 20260506004430 | 72 | 190 | 6.0 | 10.0 | 0.00 | 0.00 | 0.00 | 57 | 1010.6 |
| 20260506003932 | 73 | 217 | 5.0 | 10.0 | 0.00 | 0.00 | 0.00 | 56 | 1010.6 |
| 20260506003431 | 73 | 231 | 6.0 | 13.0 | 0.00 | 0.00 | 0.00 | 55 | 1010.6 |
| 20260506002931 | 73 | 323 | 7.0 | 13.0 | 0.00 | 0.00 | 0.00 | 55 | 1010.5 |
| 20260506002430 | 73 | 225 | 6.0 | 13.0 | 0.00 | 0.00 | 0.00 | 55 | 1010.6 |
| 20260506001931 | 73 | 198 | 6.0 | 11.0 | 0.00 | 0.00 | 0.00 | 54 | 1010.5 |
| 20260506001430 | 74 | 196 | 6.0 | 11.0 | 0.00 | 0.00 | 0.00 | 54 | 1010.4 |
| 20260506000933 | 74 | 219 | 6.0 | 14.0 | 0.00 | 0.00 | 0.00 | 54 | 1010.3 |
| 20260506000431 | 74 | 302 | 7.0 | 16.0 | 0.00 | 0.00 | 0.00 | 53 | 1010.3 |
| 20260505235931 | 74 | 271 | 6.0 | 16.0 | 0.00 | 0.00 | 0.00 | 52 | 1010.3 |
| 20260505235430 | 74 | 195 | 5.0 | 11.0 | 0.00 | 0.00 | 0.00 | 51 | 1010.3 |
| 20260505234931 | 75 | 201 | 5.0 | 11.0 | 0.00 | 0.00 | 0.00 | 50 | 1010.1 |
| 20260505234430 | 75 | 223 | 5.0 | 13.0 | 0.00 | 0.00 | 0.00 | 49 | 1010.0 |
| 20260505233933 | 76 | 165 | 5.0 | 13.0 | 0.00 | 0.00 | 0.00 | 49 | 1010.1 |
| 20260505233431 | 76 | 168 | 6.0 | 15.0 | 0.00 | 0.00 | 0.00 | 48 | 1010.1 |
| 20260505232430 | 77 | 205 | 7.0 | 16.0 | 0.00 | 0.00 | 0.00 | 46 | 1010.1 |
| 20260505231430 | 77 | 186 | 8.0 | 18.0 | 0.00 | 0.00 | 0.00 | 45 | 1010.1 |
| 20260505230932 | 77 | 193 | 7.0 | 18.0 | 0.00 | 0.00 | 0.00 | 45 | 1010.2 |
| 20260505230432 | 78 | 212 | 7.0 | 14.0 | 0.00 | 0.00 | 0.00 | 45 | 1010.0 |
| 20260505225932 | 78 | 182 | 7.0 | 14.0 | 0.00 | 0.00 | 0.00 | 45 | 1009.9 |
| 20260505225430 | 78 | 207 | 8.0 | 21.0 | 0.00 | 0.00 | 0.00 | 43 | 1010.0 |
| 20260505224932 | 79 | 184 | 9.0 | 21.0 | 0.00 | 0.00 | 0.00 | 42 | 1010.0 |
| 20260505224429 | 79 | 188 | 8.0 | 21.0 | 0.00 | 0.00 | 0.00 | 43 | 1010.0 |
| 20260505223931 | 79 | 165 | 7.0 | 21.0 | 0.00 | 0.00 | 0.00 | 43 | 1009.9 |
| 20260505223431 | 79 | 193 | 7.0 | 12.0 | 0.00 | 0.00 | 0.00 | 43 | 1009.9 |
| 20260505222931 | 79 | 233 | 8.0 | 18.0 | 0.00 | 0.00 | 0.00 | 42 | 1010.0 |
| 20260505222429 | 79 | 216 | 9.0 | 18.0 | 0.00 | 0.00 | 0.00 | 42 | 1010.1 |
| 20260505221932 | 80 | 229 | 9.0 | 21.0 | 0.00 | 0.00 | 0.00 | 42 | 1010.2 |
| 20260505221430 | 80 | 233 | 12.0 | 24.0 | 0.00 | 0.00 | 0.00 | 41 | 1010.3 |
| 20260505220932 | 80 | 196 | 11.0 | 24.0 | 0.00 | 0.00 | 0.00 | 40 | 1010.3 |
| 20260505220429 | 80 | 216 | 9.0 | 19.0 | 0.00 | 0.00 | 0.00 | 41 | 1010.3 |
| 20260505215430 | 81 | 209 | 11.0 | 27.0 | 0.00 | 0.00 | 0.00 | 40 | 1010.3 |
| 20260505214932 | 81 | 204 | 11.0 | 23.0 | 0.00 | 0.00 | 0.00 | 41 | 1010.2 |
| 20260505214430 | 81 | 211 | 10.0 | 23.0 | 0.00 | 0.00 | 0.00 | 41 | 1010.2 |
| 20260505213931 | 81 | 112 | 9.0 | 19.0 | 0.00 | 0.00 | 0.00 | 42 | 1010.1 |
| 20260505213430 | 80 | 203 | 9.0 | 19.0 | 0.00 | 0.00 | 0.00 | 42 | 1010.2 |
| 20260505212932 | 80 | 191 | 10.0 | 23.0 | 0.00 | 0.00 | 0.00 | 44 | 1009.9 |
| 20260505212431 | 81 | 203 | 11.0 | 23.0 | 0.00 | 0.00 | 0.00 | 43 | 1010.1 |
| 20260505211931 | 81 | 181 | 9.0 | 22.0 | 0.00 | 0.00 | 0.00 | 42 | 1010.1 |